This is the latest recevied weather packets stored in our database for station/object AE5TC. If no packets are shown the sender has not sent any weather packets the latest 1 day(s).
| Time | Temp. | Humidity | Pressure | Rain* | Wind** | Luminosity | Snow |
|---|---|---|---|---|---|---|---|
| 1778109834 | 25° C | 90% | 1013.3 hPa | 0 mm | - | 38 W/m² | - |
| 1778109530 | 25° C | 90% | 1013.3 hPa | 0 mm | - | 44 W/m² | - |
| 1778108318 | 26.11° C | 86% | 1013.5 hPa | 0 mm | - | 115 W/m² | - |
| 1778108016 | 26.11° C | 85% | 1013.9 hPa | 0 mm | - | 129 W/m² | - |
| 1778107410 | 26.67° C | 82% | 1013.7 hPa | 0 mm | - | 158 W/m² | - |
| 1778106801 | 26.67° C | 80% | 1013.9 hPa | 0 mm | - | 189 W/m² | - |
| 1778106499 | 26.67° C | 80% | 1013.9 hPa | 0 mm | - | 205 W/m² | - |
| 1778106194 | 27.22° C | 80% | 1013.9 hPa | 0 mm | - | 221 W/m² | - |
| 1778103768 | 27.22° C | 79% | 1014.3 hPa | 0 mm | - | 351 W/m² | - |
| 1778103163 | 27.78° C | 80% | 1014.5 hPa | 0 mm | - | 371 W/m² | - |
| 1778102556 | 27.78° C | 79% | 1014.5 hPa | 0 mm | - | 414 W/m² | - |
| 1778101942 | 27.78° C | 77% | 1014.5 hPa | 0 mm | - | 447 W/m² | - |
| 1778101028 | 27.78° C | 80% | 1014.5 hPa | 0 mm | - | 494 W/m² | - |
| 1778100728 | 27.78° C | 80% | 1014.6 hPa | 0 mm | - | 513 W/m² | - |
| 1778098608 | 27.78° C | 79% | 1015.1 hPa | 0 mm | - | 610 W/m² | - |
| 1778097698 | 27.78° C | 79% | 1015.5 hPa | 0 mm | - | 655 W/m² | - |
| 1778097091 | 28.33° C | 79% | 1015.4 hPa | 0 mm | - | 698 W/m² | - |
| 1778096789 | 28.33° C | 77% | 1015.4 hPa | 0 mm | - | 689 W/m² | - |
| 1778096183 | 28.89° C | 77% | 1015.8 hPa | 0 mm | - | 706 W/m² | - |
| 1778095880 | 28.33° C | 78% | 1015.7 hPa | 0 mm | - | 719 W/m² | - |
| 1778094054 | 28.33° C | 79% | 1015.9 hPa | 0 mm | - | 766 W/m² | - |
| 1778092842 | 28.33° C | 77% | 1016.2 hPa | 0 mm | - | 285 W/m² | - |
| 1778091932 | 28.33° C | 80% | 1016.3 hPa | 0 mm | - | 831 W/m² | - |
| 1778091629 | 28.33° C | 78% | 1016.2 hPa | 0 mm | - | 880 W/m² | - |
| 1778090720 | 27.78° C | 78% | 1016.3 hPa | 0 mm | - | 824 W/m² | - |
* Rain latest hour (hover to see other rain measurements)
** Current wind speed in m/s (hover to see current wind gust speed)